DFFD

Ouagadougou International Airport

Airport
ICAO code
DFFD
IATA Code
OUA
Summary
ICAO Region
AFI
ICAO Territory
Location

Ouagadougou,

Serving
Ouagadougou
Elevation
1037 ft
Coordinates
12° 21' 13" N , 1° 30' 43" W
Metar
Observation
DFFD 271300Z 03009KT 340V090 CAVOK 35/01 Q1010 NOSIG
Station
Ouagadougou
Date/Time
2023-01-27 13:00:00
Wind direction
30°
Wind speed
09 kts
Lowest cloud amount
clouds and visibility OK
Temperature
35°C
Dew point
1°C
Humidity
11%
QNH
1010 hPa
Weather condition
n/a

Description

Ouagadougou International Airport is an airport located in the centre of the city of Ouagadougou in Burkina Faso.

Runways

Designator Length Width Surface Rops
04R/22L 1911 30 LAT Yes/Yes
04L/22R 3028 45 ASP Yes/Yes

Airport map

Aerial View

SKYbrary Partners:

Safety knowledge contributed by: